User: anonymous   Login
Location: Ertinghausen
(51.6624°N, 9.7874°E)
Time: 13:54:05
(UTC+00:00)
Language:

Cosmos 1745 Rocket - Orbit

View from above orbital plane
View from above orbital plane
View from above satellite
View from above satellite

Ground track
Ground track

The orbit data is extracted from the following two-line orbital elements,

1 16728U 86037B   24195.80036950  .00000185  00000-0  17152-3 0  9993
2 16728  82.9529 221.3796 0031053 171.2811   2.2966 13.76930524915813
Epoch (UTC): 13 July 2024 19:12:31
Eccentricity: 0.0031053
inclination: 82.9529°
perigee height: 952 km
apogee height: 997 km
right ascension of ascending node: 221.3796°
argument of perigee: 171.2811°
revolutions per day: 13.76930524
mean anomaly at epoch: 2.2966°
orbit number at epoch: 91581

The dashed part of the orbit path shows where the satellite is in the earth's shadow,  

DLR